This is the latest recevied weather packets stored in our database for station/object CE3MXM-12. If no packets are shown the sender has not sent any weather packets the latest 1 day(s).
| Time | Temp. | Humidity | Pressure | Rain* | Wind** | Luminosity | Snow |
|---|---|---|---|---|---|---|---|
| 1778031317 | 11.11° C | 93% | 1014.4 hPa | - | 3.58 m/s, 291° | - | - |
| 1778031017 | 11.11° C | 93% | 1014.6 hPa | - | 6.26 m/s, 185° | - | - |
| 1778030716 | 11.11° C | 93% | 1014.5 hPa | - | 2.24 m/s, 313° | - | - |
| 1778030416 | 11.11° C | 93% | 1014.7 hPa | - | 3.58 m/s, 321° | - | - |
| 1778030128 | 11.11° C | 92% | 1014.6 hPa | - | 3.58 m/s, 305° | - | - |
| 1778029816 | 11.11° C | 92% | 1014.8 hPa | - | 3.13 m/s, 335° | - | - |
| 1778029516 | 11.11° C | 93% | 1014.5 hPa | - | 2.68 m/s, 321° | - | - |
| 1778029216 | 11.11° C | 93% | 1014.3 hPa | - | 6.71 m/s, 19° | - | - |
| 1778028916 | 11.11° C | 93% | 1014.4 hPa | - | 4.92 m/s, 30° | - | - |
| 1778028616 | 11.11° C | 93% | 1014.4 hPa | - | 0.89 m/s, 323° | - | - |
| 1778028316 | 11.67° C | 93% | 1014.6 hPa | - | 4.47 m/s, 178° | - | - |
| 1778028015 | 11.67° C | 92% | 1014.6 hPa | - | 5.36 m/s, 338° | - | - |
| 1778027716 | 11.67° C | 92% | 1014.4 hPa | - | 3.58 m/s, 213° | - | - |
| 1778027415 | 11.67° C | 92% | 1014.3 hPa | - | 3.58 m/s, 314° | - | - |
| 1778027115 | 11.67° C | 92% | 1014.3 hPa | - | 2.24 m/s, 334° | - | - |
| 1778026815 | 11.67° C | 92% | 1014.2 hPa | - | 3.58 m/s, 358° | - | - |
| 1778026515 | 11.67° C | 93% | 1014.1 hPa | - | 0.45 m/s, 319° | - | - |
| 1778026215 | 11.67° C | 92% | 1014.3 hPa | - | 5.36 m/s, 317° | - | - |
| 1778025915 | 11.67° C | 92% | 1014.4 hPa | - | 0.89 m/s, 319° | - | - |
| 1778025615 | 11.67° C | 92% | 1014.4 hPa | - | 2.68 m/s, 311° | - | - |
| 1778025315 | 11.67° C | 92% | 1014.4 hPa | - | 9.39 m/s, 332° | - | - |
| 1778025014 | 11.67° C | 91% | 1014.4 hPa | - | 2.68 m/s, 335° | - | - |
| 1778024715 | 11.67° C | 91% | 1014.4 hPa | - | 5.36 m/s, 307° | - | - |
| 1778024414 | 12.22° C | 91% | 1014.2 hPa | - | 0.89 m/s, 316° | - | - |
| 1778024114 | 12.22° C | 91% | 1014.3 hPa | - | 0.45 m/s, 321° | - | - |
* Rain since midnight (hover to see other rain measurements)
** Current wind speed in m/s (hover to see current wind gust speed)